| time (UTC) | temp C | wind direction | speed KPH | gust KPH | rain 1hr cm | rain 24hr cm | rain mn cm | humidity % | barometer mb |
| 20260905180002 | 32 | 68 | 1.6 | 12.9 | 0.00 | 0.00 | 0.00 | 62 | 1012.4 |
| 20260905174501 | 31 | 75 | 1.6 | 9.7 | 0.00 | 0.00 | 0.00 | 65 | 1012.7 |
| 20260905173059 | 31 | 101 | 8.0 | 11.3 | 0.00 | 0.00 | 0.00 | 65 | 1013.0 |
| 20260905171602 | 31 | 30 | 0.0 | 9.7 | 0.00 | 0.00 | 0.00 | 66 | 1013.3 |
| 20260905170107 | 31 | 58 | 3.2 | 6.4 | 0.00 | 0.00 | 0.00 | 66 | 1013.5 |
| 20260905164604 | 30 | 270 | 0.0 | 4.8 | 0.00 | 0.00 | 0.00 | 67 | 1013.6 |
| 20260905163056 | 31 | 36 | 3.2 | 8.0 | 0.00 | 0.00 | 0.00 | 67 | 1013.7 |
| 20260905161555 | 31 | 71 | 1.6 | 4.8 | 0.00 | 0.00 | 0.00 | 65 | 1013.7 |
| 20260905160051 | 30 | 32 | 0.0 | 3.2 | 0.00 | 0.00 | 0.00 | 68 | 1013.7 |
| 20260905154551 | 30 | 27 | 3.2 | 9.7 | 0.00 | 0.00 | 0.00 | 68 | 1013.6 |
| 20260905153049 | 28 | 56 | 0.0 | 6.4 | 0.00 | 0.00 | 0.00 | 68 | 1013.6 |
| 20260905151550 | 28 | 62 | 1.6 | 8.0 | 0.00 | 0.00 | 0.00 | 68 | 1013.6 |
| 20260905150052 | 29 | 49 | 0.0 | 1.6 | 0.00 | 0.00 | 0.00 | 68 | 1013.6 |
| 20260905144547 | 28 | 49 | 0.0 | 4.8 | 0.00 | 0.00 | 0.00 | 68 | 1013.7 |
| 20260905143043 | 27 | 46 | 0.0 | 4.8 | 0.00 | 0.00 | 0.00 | 65 | 1013.6 |
| 20260905141541 | 28 | 62 | 3.2 | 6.4 | 0.00 | 0.00 | 0.00 | 67 | 1013.5 |
| 20260905140042 | 27 | 34 | 0.0 | 1.6 | 0.00 | 0.00 | 0.00 | 60 | 1013.3 |
| 20260905134538 | 26 | 307 | 0.0 | 1.6 | 0.00 | 0.00 | 0.00 | 42 | 1013.1 |
| 20260905133032 | 25 | 307 | 0.0 | 1.6 | 0.00 | 0.00 | 0.00 | 17 | 1012.9 |
| 20260905131530 | 25 | 307 | 0.0 | 0.0 | 0.00 | 0.00 | 0.00 | 14 | 1012.8 |
| 20260905130036 | -17 | 0.0 | 0.0 | 0.00 | 0.00 | 0.00 | 1012.6 | ||
| 20260905124524 | -17 | 0.0 | 0.0 | 0.00 | 0.00 | 0.00 | 1012.5 | ||
| 20260905123017 | -17 | 0.0 | 0.0 | 0.00 | 0.00 | 0.00 | 1012.5 | ||
| 20260905121513 | -17 | 0.0 | 0.0 | 0.00 | 0.00 | 0.00 | 1012.3 | ||
| 20260905120008 | -17 | 0.0 | 0.0 | 0.00 | 0.00 | 0.00 | 1012.3 | ||
| 20260905114507 | -17 | 0.0 | 0.0 | 0.00 | 0.00 | 0.00 | 1012.3 | ||
| 20260905113108 | -17 | 0.0 | 0.0 | 0.00 | 0.00 | 0.00 | 1012.0 | ||
| 20260905111603 | -17 | 0.0 | 0.0 | 0.00 | 0.00 | 0.00 | 1012.0 | ||
| 20260905110051 | -17 | 0.0 | 0.0 | 0.00 | 0.00 | 0.00 | 1011.9 | ||
| 20260905104604 | -17 | 0.0 | 0.0 | 0.00 | 0.00 | 0.00 | 1011.8 | ||
| 20260905103043 | -17 | 0.0 | 0.0 | 0.00 | 0.00 | 0.00 | 1011.7 | ||
| 20260905101538 | -17 | 0.0 | 0.0 | 0.00 | 0.00 | 0.00 | 1011.8 | ||
| 20260905100037 | -17 | 0.0 | 0.0 | 0.00 | 0.00 | 0.00 | 1011.7 | ||
| 20260905094530 | -17 | 0.0 | 0.0 | 0.00 | 0.00 | 0.00 | 1011.8 | ||
| 20260905093025 | -17 | 0.0 | 0.0 | 0.00 | 0.00 | 0.00 | 1011.8 | ||
| 20260905091521 | -17 | 0.0 | 0.0 | 0.00 | 0.00 | 0.00 | 1011.9 | ||
| 20260905090024 | 25 | 76 | 1.6 | 6.4 | 0.00 | 0.00 | 0.00 | 29 | 1011.9 |
| 20260905084516 | 25 | 74 | 4.8 | 11.3 | 0.00 | 0.00 | 0.00 | 32 | 1012.0 |
| 20260905083013 | 25 | 68 | 8.0 | 12.9 | 0.00 | 0.00 | 0.00 | 32 | 1011.9 |
| 20260905081511 | 25 | 100 | 4.8 | 12.9 | 0.00 | 0.00 | 0.00 | 36 | 1012.0 |
| 20260905080010 | 25 | 92 | 4.8 | 14.5 | 0.00 | 0.00 | 0.00 | 38 | 1011.9 |
| 20260905074509 | 25 | 86 | 8.0 | 11.3 | 0.00 | 0.00 | 0.00 | 41 | 1012.0 |
| 20260905073012 | 25 | 53 | 8.0 | 14.5 | 0.00 | 0.00 | 0.00 | 46 | 1012.3 |
| 20260905071502 | 25 | 62 | 8.0 | 12.9 | 0.00 | 0.00 | 0.00 | 49 | 1012.4 |
| 20260905070058 | 26 | 78 | 8.0 | 17.7 | 0.00 | 0.00 | 0.00 | 55 | 1012.5 |
| 20260905064555 | 26 | 74 | 6.4 | 12.9 | 0.00 | 0.00 | 0.00 | 60 | 1012.8 |
| 20260905063051 | 26 | 75 | 3.2 | 9.7 | 0.00 | 0.00 | 0.00 | 62 | 1013.0 |
| 20260905061554 | 26 | 90 | 4.8 | 14.5 | 0.00 | 0.00 | 0.00 | 64 | 1013.2 |
| 20260905060047 | 26 | 69 | 6.4 | 16.1 | 0.00 | 0.00 | 0.00 | 64 | 1013.2 |
| 20260905054545 | 26 | 80 | 9.7 | 17.7 | 0.00 | 0.00 | 0.00 | 65 | 1013.0 |
| 20260905053044 | 26 | 82 | 8.0 | 16.1 | 0.00 | 0.00 | 0.00 | 66 | 1013.1 |
| 20260905051544 | 27 | 54 | 9.7 | 19.3 | 0.00 | 0.00 | 0.00 | 67 | 1013.2 |
| 20260905050044 | 27 | 80 | 9.7 | 25.7 | 0.00 | 0.00 | 0.00 | 68 | 1013.0 |
| 20260905044543 | 27 | 113 | 16.1 | 25.7 | 0.00 | 0.00 | 0.00 | 68 | 1012.7 |
| 20260905043042 | 27 | 58 | 9.7 | 22.5 | 0.00 | 0.00 | 0.00 | 69 | 1012.6 |
| 20260905041549 | 28 | 61 | 6.4 | 22.5 | 0.00 | 0.00 | 0.00 | 69 | 1012.7 |
| 20260905040041 | 28 | 117 | 14.5 | 24.1 | 0.00 | 0.00 | 0.00 | 69 | 1012.7 |
| 20260905034548 | 28 | 63 | 11.3 | 22.5 | 0.00 | 0.00 | 0.00 | 69 | 1012.5 |
| 20260905033040 | 28 | 61 | 19.3 | 30.6 | 0.00 | 0.00 | 0.00 | 68 | 1012.0 |
| 20260905031539 | 28 | 58 | 22.5 | 30.6 | 0.00 | 0.00 | 0.00 | 65 | 1012.1 |
| 20260905030043 | 29 | 116 | 16.1 | 29.0 | 0.00 | 0.00 | 0.00 | 60 | 1012.2 |
| 20260905024539 | 30 | 54 | 20.9 | 33.8 | 0.00 | 0.00 | 0.00 | 55 | 1011.5 |
| 20260905023038 | 31 | 75 | 3.2 | 8.0 | 0.00 | 0.00 | 0.00 | 55 | 1010.8 |
| 20260905021537 | 30 | 75 | 3.2 | 8.0 | 0.00 | 0.00 | 0.00 | 55 | 1010.8 |
| 20260905020036 | 30 | 129 | 0.0 | 3.2 | 0.00 | 0.00 | 0.00 | 55 | 1010.6 |
| 20260905014535 | 31 | 190 | 1.6 | 6.4 | 0.00 | 0.00 | 0.00 | 55 | 1010.7 |
| 20260905013044 | 31 | 78 | 4.8 | 8.0 | 0.00 | 0.00 | 0.00 | 54 | 1011.0 |
| 20260905011535 | 31 | 71 | 3.2 | 8.0 | 0.00 | 0.00 | 0.00 | 54 | 1010.8 |
| 20260905010040 | 32 | 160 | 3.2 | 9.7 | 0.00 | 0.00 | 0.00 | 54 | 1010.7 |
| 20260905004537 | 32 | 91 | 8.0 | 14.5 | 0.00 | 0.00 | 0.00 | 52 | 1010.4 |
| 20260905003034 | 32 | 101 | 4.8 | 9.7 | 0.00 | 0.00 | 0.00 | 52 | 1010.7 |
| 20260905001532 | 32 | 101 | 3.2 | 14.5 | 0.00 | 0.00 | 0.00 | 52 | 1010.9 |
| 20260905000035 | 32 | 121 | 6.4 | 14.5 | 0.00 | 0.00 | 0.00 | 54 | 1010.8 |
| 20260904234531 | 31 | 60 | 3.2 | 12.9 | 0.00 | 0.00 | 0.00 | 57 | 1010.4 |
| 20260904233031 | 31 | 46 | 0.0 | 6.4 | 0.00 | 0.00 | 0.00 | 60 | 1010.7 |
| 20260904231528 | 31 | 269 | 0.0 | 3.2 | 0.00 | 0.00 | 0.00 | 59 | 1010.5 |
| 20260904230028 | 32 | 280 | 0.0 | 6.4 | 0.00 | 0.00 | 0.00 | 60 | 1011.0 |
| 20260904224526 | 32 | 147 | 3.2 | 12.9 | 0.00 | 0.00 | 0.00 | 55 | 1010.6 |
| 20260904223026 | 32 | 93 | 4.8 | 17.7 | 0.00 | 0.00 | 0.00 | 54 | 1010.4 |
| 20260904221525 | 32 | 93 | 9.7 | 14.5 | 0.00 | 0.00 | 0.00 | 55 | 1010.2 |
| 20260904220024 | 32 | 181 | 8.0 | 16.1 | 0.00 | 0.00 | 0.00 | 54 | 1010.0 |
| 20260904214521 | 32 | 143 | 8.0 | 17.7 | 0.00 | 0.00 | 0.00 | 53 | 1010.4 |
| 20260904213024 | 32 | 158 | 12.9 | 27.4 | 0.00 | 0.00 | 0.00 | 53 | 1010.6 |
| 20260904211519 | 33 | 78 | 8.0 | 19.3 | 0.00 | 0.00 | 0.00 | 54 | 1010.9 |
| 20260904210019 | 33 | 70 | 11.3 | 19.3 | 0.00 | 0.00 | 0.00 | 54 | 1010.9 |
| 20260904204519 | 33 | 63 | 11.3 | 17.7 | 0.00 | 0.00 | 0.00 | 55 | 1010.7 |
| 20260904203027 | 33 | 115 | 12.9 | 20.9 | 0.00 | 0.00 | 0.00 | 56 | 1010.7 |
| 20260904201512 | 32 | 88 | 8.0 | 22.5 | 0.00 | 0.00 | 0.00 | 58 | 1010.8 |
| 20260904200009 | 32 | 118 | 8.0 | 16.1 | 0.00 | 0.00 | 0.00 | 59 | 1011.2 |
| 20260904194507 | 32 | 82 | 4.8 | 16.1 | 0.00 | 0.00 | 0.00 | 58 | 1011.3 |
| 20260904193004 | 32 | 66 | 4.8 | 19.3 | 0.00 | 0.00 | 0.00 | 59 | 1011.2 |
| 20260904191559 | 32 | 103 | 8.0 | 11.3 | 0.00 | 0.00 | 0.00 | 60 | 1011.3 |
| 20260904190101 | 32 | 98 | 9.7 | 17.7 | 0.00 | 0.00 | 0.00 | 61 | 1011.7 |
| 20260904184612 | 31 | 74 | 6.4 | 14.5 | 0.00 | 0.00 | 0.00 | 63 | 1011.8 |
| 20260904183053 | 31 | 105 | 4.8 | 14.5 | 0.00 | 0.00 | 0.00 | 64 | 1012.0 |
| 20260904181608 | 31 | 143 | 6.4 | 11.3 | 0.00 | 0.00 | 0.00 | 65 | 1012.3 |